Home > Weather > Bowling Green > Past weeks

Flag for USA Past Weather in Bowling Green, Kentucky, USA — Yesterday and Last 2 Weeks

Now
73 °F

Clear.


Feels Like: 70 °F
Forecast: 74 / 93 °F
Wind: No wind

Location: Glasgow Municipal Airport

Current Time: Jun 26, 2016 at 1:26:39 AM

Latest Report: Jun 26, 2016 at 12:55 AM


Visibility: 10 mi

Pressure: 30.10 "Hg

Humidity: 95%

Dew Point: 72 °F

Location of Bowling GreenLocation

Past Weather in Bowling Green — Graph

°F

Bowling Green Temperature Yesterday

Maximum temperature yesterday: 91 °F (at 3:55 PM)
Minimum temperature yesterday: 65 °F (at 4:15 AM)
Average temperature yesterday: 79 °F

High & Low Weather Summary for the Past Weeks

 TemperatureHumidityPressure
High95 °F (Jun 16, 3:35 PM)100% (Jun 11, 12:55 AM)30.33 "Hg (Jun 11, 12:55 AM)
Low62 °F (Jun 11, 5:55 AM)34% (Jun 11, 1:35 PM)29.79 "Hg (Jun 16, 5:15 PM)
Average78 °F73%30.04 "Hg
* Reported Jun 11 12:15 AM — Jun 26 12:15 AM, Bowling Green, Weather by CustomWeather, © 2016

Note: Actual official high and low records may vary slightly from our data, if they occured in-between our weather recording intervals... More about our weather records

Advertising

Bowling Green Weather History for the Previous 24 Hours

Scroll right to see more
 ConditionsComfort  
Time TempWeatherWind HumidityBarometerVisibility
12:15 AM
Sun, Jun 26
74 °FClear.No wind94%30.10 "Hg10 mi
11:55 PM
Sat, Jun 25
74 °FClear.No wind93%30.10 "Hg10 mi
11:15 PM74 °FClear.No wind88%30.10 "Hg10 mi
10:55 PM76 °FClear.No wind83%30.10 "Hg10 mi
10:35 PM77 °FClear.No wind82%30.11 "Hg10 mi
10:15 PM76 °FClear.No wind82%30.11 "Hg10 mi
9:55 PM76 °FClear.No wind82%30.11 "Hg10 mi
9:15 PM78 °FClear.No wind77%30.11 "Hg10 mi
8:55 PM78 °FClear.No wind74%30.10 "Hg10 mi
8:35 PM79 °FClear.No wind77%30.09 "Hg10 mi
8:15 PM81 °FClear.No wind75%30.09 "Hg10 mi
7:55 PM82 °FSunny.No wind70%30.09 "Hg10 mi
7:15 PM86 °FSunny.3 mph54%30.08 "Hg10 mi
6:55 PM88 °FSunny.No wind51%30.07 "Hg10 mi
6:15 PM89 °FSunny.No wind47%30.07 "Hg10 mi
5:55 PM90 °FSunny.3 mph48%30.07 "Hg10 mi
5:35 PM90 °FSunny.No wind45%30.07 "Hg10 mi
5:15 PM90 °FSunny.No wind45%30.07 "Hg10 mi
4:55 PM90 °FSunny.No wind45%30.07 "Hg10 mi
4:35 PM90 °FSunny.5 mph45%30.08 "Hg10 mi
4:15 PM90 °FSunny.No wind43%30.08 "Hg10 mi
3:55 PM91 °FSunny.3 mph42%30.08 "Hg10 mi
3:15 PM90 °FSunny.No wind42%30.09 "Hg10 mi
2:55 PM90 °FSunny.3 mph43%30.09 "Hg10 mi
2:35 PM89 °FSunny.No wind44%30.10 "Hg10 mi
2:15 PM89 °FScattered clouds.No wind47%30.10 "Hg10 mi
1:55 PM89 °FScattered clouds.No wind46%30.11 "Hg10 mi
1:15 PM89 °FScattered clouds.5 mph47%30.12 "Hg10 mi
12:55 PM89 °FSunny.No wind49%30.12 "Hg10 mi
12:35 PM88 °FSunny.No wind48%30.13 "Hg10 mi
12:15 PM88 °FScattered clouds.No wind50%30.13 "Hg10 mi
11:55 AM87 °FScattered clouds.No wind50%30.13 "Hg10 mi
11:35 AM87 °FSunny.3 mph48%30.13 "Hg10 mi
11:15 AM87 °FSunny.5 mph50%30.14 "Hg10 mi
10:55 AM86 °FSunny.No wind48%30.14 "Hg10 mi
10:15 AM85 °FSunny.No wind54%30.14 "Hg10 mi
9:55 AM83 °FSunny.No wind59%30.14 "Hg7 mi
9:35 AM82 °FSunny.No wind65%30.14 "Hg10 mi
9:15 AM81 °FSunny.No wind67%30.14 "Hg10 mi
8:55 AM80 °FSunny.No wind70%30.14 "Hg10 mi
8:15 AM76 °FSunny.No wind82%30.13 "Hg10 mi
7:55 AM75 °FSunny.No wind84%30.13 "Hg10 mi
7:15 AM72 °FSunny.No wind95%30.12 "Hg10 mi
6:55 AM69 °FSunny.No wind99%30.12 "Hg10 mi
6:35 AM68 °FSunny.No wind100%30.11 "Hg7 mi
6:15 AM66 °FSunny.No wind100%30.11 "Hg5 mi
5:55 AM66 °FSunny.No wind100%30.11 "Hg5 mi
5:15 AM66 °FClear.No wind100%30.10 "Hg5 mi
4:55 AM66 °FClear.No wind100%30.09 "Hg4 mi
4:35 AM66 °FClear.No wind100%30.09 "Hg7 mi
4:15 AM65 °FClear.No wind100%30.09 "Hg4 mi
3:55 AM67 °FClear.No wind100%30.08 "Hg7 mi
3:35 AM66 °FClear.No wind100%30.08 "Hg7 mi
3:15 AM67 °FClear.No wind100%30.08 "Hg7 mi
2:55 AM67 °FClear.No wind100%30.08 "Hg7 mi
2:15 AM68 °FClear.No wind100%30.07 "Hg7 mi
1:55 AM67 °FClear.No wind100%30.08 "Hg5 mi
1:35 AM68 °FClear.No wind100%30.08 "Hg5 mi
1:15 AM68 °FClear.No wind100%30.08 "Hg7 mi
Weather by CustomWeather, © 2016

See weather overviewHow to use our weather pages